| time (UTC) | temp F | wind direction | speed MPH | gust MPH | rain 1hr in | rain 24hr in | rain mn in | humidity % | barometer mb |
| 20260503211533 | 54 | 211 | 2.0 | 3.0 | 0.00 | 0.00 | 0.00 | 75 | 1019.0 |
| 20260503210524 | 55 | 244 | 1.0 | 2.0 | 0.00 | 0.00 | 0.00 | 73 | 1019.0 |
| 20260503205615 | 55 | 249 | 0.0 | 1.0 | 0.00 | 0.00 | 0.00 | 73 | 1019.0 |
| 20260503204604 | 56 | 267 | 0.0 | 1.0 | 0.00 | 0.00 | 0.00 | 72 | 1018.9 |
| 20260503203554 | 56 | 223 | 1.0 | 2.0 | 0.00 | 0.00 | 0.00 | 71 | 1018.8 |
| 20260503202544 | 56 | 253 | 0.0 | 2.0 | 0.00 | 0.00 | 0.00 | 71 | 1018.9 |
| 20260503201534 | 56 | 232 | 1.0 | 3.0 | 0.00 | 0.00 | 0.00 | 71 | 1018.9 |
| 20260503200524 | 57 | 253 | 1.0 | 2.0 | 0.00 | 0.00 | 0.00 | 71 | 1018.9 |
| 20260503195616 | 57 | 217 | 2.0 | 3.0 | 0.00 | 0.00 | 0.00 | 70 | 1018.7 |
| 20260503194606 | 58 | 230 | 0.0 | 1.0 | 0.00 | 0.00 | 0.00 | 70 | 1018.6 |
| 20260503193555 | 58 | 0.0 | 0.0 | 0.00 | 0.00 | 0.00 | 69 | 1018.5 | |
| 20260503192606 | 59 | 218 | 1.0 | 2.0 | 0.00 | 0.00 | 0.00 | 68 | 1018.4 |
| 20260503191535 | 61 | 262 | 0.0 | 2.0 | 0.00 | 0.00 | 0.00 | 64 | 1018.4 |
| 20260503190525 | 61 | 0.0 | 0.0 | 0.00 | 0.00 | 0.00 | 62 | 1018.2 | |
| 20260503185616 | 61 | 0.0 | 1.0 | 0.00 | 0.00 | 0.00 | 63 | 1018.2 | |
| 20260503184606 | 62 | 263 | 0.0 | 1.0 | 0.00 | 0.00 | 0.00 | 60 | 1018.0 |
| 20260503183556 | 63 | 0.0 | 0.0 | 0.00 | 0.00 | 0.00 | 60 | 1018.0 | |
| 20260503182546 | 63 | 0.0 | 0.0 | 0.00 | 0.00 | 0.00 | 57 | 1018.0 | |
| 20260503181536 | 65 | 0.0 | 0.0 | 0.00 | 0.00 | 0.00 | 55 | 1018.0 | |
| 20260503180526 | 67 | 0.0 | 0.0 | 0.00 | 0.00 | 0.00 | 49 | 1018.0 | |
| 20260503175516 | 67 | 0.0 | 0.0 | 0.00 | 0.00 | 0.00 | 47 | 1017.9 | |
| 20260503174607 | 68 | 0.0 | 0.0 | 0.00 | 0.00 | 0.00 | 46 | 1017.9 | |
| 20260503173557 | 69 | 277 | 0.0 | 1.0 | 0.00 | 0.00 | 0.00 | 43 | 1018.0 |
| 20260503172547 | 70 | 304 | 2.0 | 3.0 | 0.00 | 0.00 | 0.00 | 40 | 1017.9 |
| 20260503171537 | 70 | 307 | 1.0 | 3.0 | 0.00 | 0.00 | 0.00 | 40 | 1017.9 |
| 20260503170527 | 70 | 301 | 3.0 | 4.0 | 0.00 | 0.00 | 0.00 | 40 | 1017.9 |
| 20260503150528 | 68 | 82 | 3.0 | 7.0 | 0.00 | 0.00 | 0.00 | 60 | 1018.4 |
| 20260503130531 | 68 | 346 | 3.0 | 8.0 | 0.00 | 0.00 | 0.00 | 55 | 1019.2 |
| 20260503110533 | 70 | 313 | 6.0 | 11.0 | 0.00 | 0.00 | 0.00 | 49 | 1019.4 |
| 20260503081546 | 67 | 293 | 7.0 | 13.0 | 0.00 | 0.00 | 0.00 | 47 | 1019.9 |
| 20260503080536 | 67 | 310 | 7.0 | 13.0 | 0.00 | 0.00 | 0.00 | 46 | 1019.8 |
| 20260503072557 | 66 | 305 | 7.0 | 14.0 | 0.00 | 0.00 | 0.00 | 45 | 1020.0 |
| 20260503071547 | 66 | 323 | 6.0 | 13.0 | 0.00 | 0.00 | 0.00 | 46 | 1020.0 |
| 20260503070537 | 65 | 312 | 8.0 | 13.0 | 0.00 | 0.00 | 0.00 | 45 | 1019.9 |
| 20260503054518 | 62 | 288 | 7.0 | 13.0 | 0.00 | 0.00 | 0.00 | 43 | 1019.8 |
| 20260503053609 | 62 | 281 | 7.0 | 11.0 | 0.00 | 0.00 | 0.00 | 43 | 1019.6 |
| 20260503052559 | 62 | 290 | 6.0 | 11.0 | 0.00 | 0.00 | 0.00 | 44 | 1019.6 |
| 20260503051549 | 61 | 280 | 7.0 | 11.0 | 0.00 | 0.00 | 0.00 | 44 | 1019.5 |
| 20260503050539 | 61 | 289 | 6.0 | 13.0 | 0.00 | 0.00 | 0.00 | 44 | 1019.5 |
| 20260503045530 | 60 | 279 | 7.0 | 11.0 | 0.00 | 0.00 | 0.00 | 45 | 1019.5 |
| 20260503044520 | 59 | 282 | 6.0 | 10.0 | 0.00 | 0.00 | 0.00 | 46 | 1019.5 |
| 20260503043631 | 59 | 279 | 5.0 | 10.0 | 0.00 | 0.00 | 0.00 | 47 | 1019.5 |
| 20260503042600 | 58 | 279 | 5.0 | 10.0 | 0.00 | 0.00 | 0.00 | 47 | 1019.6 |
| 20260503041550 | 58 | 293 | 2.0 | 6.0 | 0.00 | 0.00 | 0.00 | 48 | 1019.6 |
| 20260503040540 | 58 | 286 | 5.0 | 8.0 | 0.00 | 0.00 | 0.00 | 48 | 1019.5 |
| 20260503035530 | 58 | 285 | 4.0 | 7.0 | 0.00 | 0.00 | 0.00 | 47 | 1019.4 |
| 20260503034520 | 58 | 294 | 5.0 | 9.0 | 0.00 | 0.00 | 0.00 | 47 | 1019.3 |
| 20260503033611 | 58 | 288 | 4.0 | 7.0 | 0.00 | 0.00 | 0.00 | 47 | 1019.5 |
| 20260503032601 | 58 | 299 | 6.0 | 11.0 | 0.00 | 0.00 | 0.00 | 46 | 1019.4 |
| 20260503031551 | 58 | 285 | 4.0 | 8.0 | 0.00 | 0.00 | 0.00 | 47 | 1019.5 |
| 20260503030540 | 59 | 286 | 6.0 | 11.0 | 0.00 | 0.00 | 0.00 | 46 | 1019.5 |
| 20260503025531 | 59 | 284 | 6.0 | 14.0 | 0.00 | 0.00 | 0.00 | 46 | 1019.5 |
| 20260503024521 | 59 | 274 | 5.0 | 10.0 | 0.00 | 0.00 | 0.00 | 46 | 1019.6 |
| 20260503023632 | 58 | 287 | 4.0 | 9.0 | 0.00 | 0.00 | 0.00 | 47 | 1019.7 |
| 20260503022602 | 58 | 275 | 5.0 | 9.0 | 0.00 | 0.00 | 0.00 | 47 | 1019.6 |
| 20260503021552 | 58 | 281 | 3.0 | 7.0 | 0.00 | 0.00 | 0.00 | 47 | 1019.7 |
| 20260503020542 | 58 | 278 | 4.0 | 7.0 | 0.00 | 0.00 | 0.00 | 48 | 1019.6 |
| 20260503015532 | 58 | 279 | 4.0 | 7.0 | 0.00 | 0.00 | 0.00 | 47 | 1019.5 |
| 20260503014522 | 58 | 270 | 4.0 | 9.0 | 0.00 | 0.00 | 0.00 | 47 | 1019.6 |
| 20260503013613 | 58 | 282 | 5.0 | 9.0 | 0.00 | 0.00 | 0.00 | 48 | 1019.7 |
| 20260503012603 | 58 | 278 | 4.0 | 9.0 | 0.00 | 0.00 | 0.00 | 48 | 1019.9 |
| 20260503011553 | 58 | 271 | 5.0 | 10.0 | 0.00 | 0.00 | 0.00 | 48 | 1019.9 |
| 20260503010543 | 58 | 276 | 5.0 | 8.0 | 0.00 | 0.00 | 0.00 | 49 | 1020.1 |
| 20260503005534 | 57 | 275 | 5.0 | 10.0 | 0.00 | 0.00 | 0.00 | 50 | 1020.3 |
| 20260503004523 | 57 | 273 | 5.0 | 7.0 | 0.00 | 0.00 | 0.00 | 50 | 1020.2 |
| 20260503003614 | 58 | 280 | 4.0 | 7.0 | 0.00 | 0.00 | 0.00 | 50 | 1020.4 |
| 20260503002604 | 57 | 276 | 4.0 | 8.0 | 0.00 | 0.00 | 0.00 | 50 | 1020.4 |
| 20260503001554 | 57 | 266 | 4.0 | 7.0 | 0.00 | 0.00 | 0.00 | 50 | 1020.5 |
| 20260503000544 | 57 | 270 | 3.0 | 7.0 | 0.00 | 0.00 | 0.00 | 51 | 1020.6 |
| 20260502235534 | 57 | 272 | 3.0 | 7.0 | 0.00 | 0.00 | 0.00 | 51 | 1020.8 |
| 20260502234524 | 57 | 283 | 3.0 | 6.0 | 0.00 | 0.00 | 0.00 | 52 | 1020.8 |
| 20260502233615 | 56 | 272 | 3.0 | 6.0 | 0.00 | 0.00 | 0.00 | 53 | 1021.0 |
| 20260502232605 | 56 | 273 | 3.0 | 4.0 | 0.00 | 0.00 | 0.00 | 53 | 1021.0 |
| 20260502231555 | 56 | 276 | 3.0 | 7.0 | 0.00 | 0.00 | 0.00 | 53 | 1021.2 |
| 20260502230545 | 56 | 284 | 3.0 | 6.0 | 0.00 | 0.00 | 0.00 | 53 | 1021.3 |
| 20260502225535 | 56 | 286 | 3.0 | 7.0 | 0.00 | 0.00 | 0.00 | 53 | 1021.3 |
| 20260502224525 | 57 | 264 | 3.0 | 8.0 | 0.00 | 0.00 | 0.00 | 52 | 1021.5 |
| 20260502223616 | 57 | 274 | 3.0 | 4.0 | 0.00 | 0.00 | 0.00 | 52 | 1021.4 |
| 20260502222606 | 57 | 281 | 3.0 | 6.0 | 0.00 | 0.00 | 0.00 | 53 | 1021.5 |
| 20260502221556 | 57 | 268 | 3.0 | 7.0 | 0.00 | 0.00 | 0.00 | 54 | 1021.6 |
| 20260502220546 | 56 | 266 | 3.0 | 6.0 | 0.00 | 0.00 | 0.00 | 56 | 1021.6 |
| 20260502215536 | 56 | 270 | 3.0 | 7.0 | 0.00 | 0.00 | 0.00 | 58 | 1021.7 |
| 20260502214526 | 56 | 276 | 3.0 | 7.0 | 0.00 | 0.00 | 0.00 | 59 | 1021.9 |
| 20260502213516 | 56 | 267 | 3.0 | 6.0 | 0.00 | 0.00 | 0.00 | 60 | 1021.9 |
| 20260502212606 | 56 | 295 | 2.0 | 6.0 | 0.00 | 0.00 | 0.00 | 60 | 1021.9 |